Location: Cartignies
(50.0929°N, 3.8447°E)
Time: 15:10:00
(UTC+00:00)

Cosmos 1933 Rocket - Pass Details

Date: 12 January 2026
Orbit: 599 x 624 km, 82.5° (Epoch: 15 February)

Event Time Altitude Azimuth Distance (km) Brightness Sun altitude
Rises 17:46:25 0° 355° (N) 2,912 6.9 -15.3°
Reaches altitude 10° 17:48:47 10° 2° (N) 1,997 6.0 -15.7°
Maximum altitude 17:52:59 42° 74° (ENE) 892 3.9 -16.4°
Drops below altitude 10° 17:57:07 10° 145° (SE) 1,968 5.9 -17.0°
Sets 17:59:25 0° 153° (SSE) 2,864 6.8 -17.4°
